Back to catalog

CZ-6A DEB

AlivePO
NORAD 54412·DEBRIS·🇨🇳 China

Launched Nov 11, 2022 from Taiyuan Satellite Launch Center

Loading…

Next Passes (next 24 hours)

TLE

FreshSource: Space-Track

Epoch: Sep 14, 2026, 13:43 UTC

1 54412U 22151EL  26257.57206597  .00014205  00000-0  13277-2 0  9994
2 54412  98.6461  14.6136 0086170 179.6108 180.5190 14.91446902205884

Track CZ-6A DEB in real time with AllMySat

Download on the App Store